PORT of DAKAR

País: Senegal País: Senegal [SN]
Latitude / Longitude: 14.681° / -17.4275° Mostrar no mapa
Hora local:  [UTC 0]
UN/LOCODE: SNDKR
Navios actualmente no Porto: 27
Chegadas previstas: 30

Chegadas e Partidas recentes


Nome do navio
Chegada (UTC)
Chegada (LT)
Partida (UTC)
Partida (LT)
Vessel Type: Pesca  MONTECELO 2014-08-17 17:24:00 2014-08-17 17:24:00 2014-08-22 22:20:00 2014-08-22 22:20:00
Vessel Type: Navio de passageiros  ALINE SITOE DIATTA 2014-08-22 05:46:00 2014-08-22 05:46:00 2014-08-22 20:26:00 2014-08-22 20:26:00
Vessel Type: Iates & outros  POLAR DUCHESS 2014-08-14 10:06:00 2014-08-14 10:06:00 2014-08-22 19:33:00 2014-08-22 19:33:00
Vessel Type: Iates & outros  E.R.NARVIK 2014-08-22 07:15:00 2014-08-22 07:15:00 2014-08-22 13:51:00 2014-08-22 13:51:00
Vessel Type: Navios de carga  MOL SEABREEZE 2014-08-21 21:19:00 2014-08-21 21:19:00 2014-08-22 13:40:00 2014-08-22 13:40:00
Vessel Type: Navios de carga  KLAUS J 2014-08-22 12:04:00 2014-08-22 12:04:00
Vessel Type: Navios de carga  BOURBON TOPAZ 2014-08-19 19:34:00 2014-08-19 19:34:00 2014-08-22 11:51:00 2014-08-22 11:51:00
Vessel Type: Navios de carga  LIDYA 2014-08-20 09:12:00 2014-08-20 09:12:00 2014-08-22 11:35:00 2014-08-22 11:35:00
Vessel Type: Navios de carga  HAI FENG 898 2014-08-21 00:15:00 2014-08-21 00:15:00 2014-08-22 09:10:00 2014-08-22 09:10:00
Vessel Type: Iates & outros  ESVAGT CONNECTOR 2014-08-22 05:55:00 2014-08-22 05:55:00

Chegadas previstas


Nome do navio
Scheduled Arrival (UTC)
Previsão de chegada (hora local)
Chegada estimada (ETA) (UTC)
Chegada estimada
Vessel Type: Navios Cisterna  ELIXIR 2014-08-21 16:00:00 2014-08-21 16:00:00
Vessel Type: Iates & outros  APOLLO SUN 2014-08-21 22:00:00 2014-08-21 22:00:00 2014-08-22 09:05:00 2014-08-22 09:05:00
Vessel Type: Navios de carga  SAFMARINE NUBA 2014-08-22 06:30:00 2014-08-22 06:30:00 2014-08-22 22:29:00 2014-08-22 22:29:00
Vessel Type: Rebocador, piloto etc  WINDWARD 2014-08-22 12:00:00 2014-08-22 12:00:00
Vessel Type: Navios de carga  MODERN EXPRESS 2014-08-23 04:00:00 2014-08-23 04:00:00 2014-08-23 02:21:00 2014-08-23 02:21:00
BREADBOX FALCON 2014-08-23 05:30:00 2014-08-23 05:30:00 2014-08-23 21:24:00 2014-08-23 21:24:00
MAERSK ARKANSAS 2014-08-23 07:00:00 2014-08-23 07:00:00 2014-08-23 06:33:00 2014-08-23 06:33:00
MARGRETE 2014-08-23 09:00:00 2014-08-23 09:00:00 2014-08-24 16:57:00 2014-08-24 16:57:00
VECTIS FALCON 2014-08-24 05:00:00 2014-08-24 05:00:00 2014-08-24 02:14:00 2014-08-24 02:14:00
Vessel Type: Navios de carga  HEBE 2014-08-24 07:30:00 2014-08-24 07:30:00 2014-08-23 18:25:00 2014-08-23 18:25:00

Wind Forecast


    
Hora (UTC)
Velocidade
Direction
Temperature
2014-08-22 21:00:00 9 knots 286° 27°C
2014-08-23 00:00:00 9 knots 276° 27°C
2014-08-23 03:00:00 9 knots 274° 27°C
2014-08-23 06:00:00 9 knots 286° 27°C
2014-08-23 09:00:00 6 knots 309° 27°C
2014-08-23 12:00:00 3 knots 300° 28°C
2014-08-23 15:00:00 8 knots 259° 28°C
2014-08-23 18:00:00 12 knots 239° 28°C
2014-08-23 21:00:00 10 knots 227° 28°C
2014-08-24 00:00:00 8 knots 247° 28°C
2014-08-24 03:00:00 7 knots 259° 27°C
2014-08-24 06:00:00 8 knots 274° 27°C
2014-08-24 09:00:00 4 knots 279° 27°C
2014-08-24 12:00:00 3 knots 277° 28°C
2014-08-24 15:00:00 11 knots 250° 28°C
2014-08-24 18:00:00 12 knots 249° 27°C
2014-08-24 21:00:00 9 knots 248° 27°C

NO_PHOTO

No Photos for this port. Be the first to upload one!